Preview of NWS' New Version of Forecast
This preview is not operational and should not be used for support decisions.

Regional Weather Roundup (RWR)

Issued by National Weather Service (NWS)

                            
000
ASUS42 KTBW 201917
RWRFL 
FLORIDA REGIONAL WEATHER ROUNDUP
NATIONAL WEATHER SERVICE TAMPA BAY RUSKIN FL
200 PM EST WED FEB 20 2019

NOTE: "FAIR" INDICATES FEW OR NO CLOUDS BELOW 12,000 FEET WITH NO
SIGNIFICANT WEATHER AND/OR OBSTRUCTIONS TO VISIBILITY.

FLZ001>010-012>015-112-114-115-202000-
PANHANDLE FLORIDA
  
CITY           SKY/WX    TMP DP  RH WIND       PRES   REMARKS
PENSACOLA      FOG       67  66  97 SE9       29.97F VSB 1/4          
PENSACOLA NAS  CLOUDY    69  68  96 SE8       29.96F FOG              
MILTON NAS     CLOUDY    69  69 100 S14       29.97                   
CRESTVIEW      CLOUDY    69  66  90 S12G17    30.00F                  
DUKE FIELD     CLOUDY    68  68 100 S16       29.98F                  
VALPARAISO     FOG       66  66 100 SE12      29.98F VSB 1            
MARY ESTHER    CLOUDY    65  64  96 SE12G17   29.97  FOG              
PANAMA CITY    CLOUDY    71  67  87 SE13G28   30.01F                  
TYNDALL AFB    CLOUDY    73  68  84 SE22G28   30.00F                  
APALACHICOLA   CLOUDY    69  66  90 SE10      30.03F FOG              

STATION/POSITION SKY/WX   TEMP    WIND        PRES    WAVE   SWELL
                          AIR SEA DIR/SP/G            HT/PER HT/PER
                          (F)     (DEG/KT/KT) (MB)    (FT/S) (FT/S)
30.1N   87.6W              68     150/ 12/ 16 1014.8F   6/ 7   5/ 7
29.2N   88.2W                     170/ 14/ 16 1014.6F   5/ 7   3/ 7
PANAMA CITY BEAC           65 63  140/ 14/ 17 1016.3F
TOWER C                    67     150/ 18/ 19 1016.5F

$$
FLZ011-016>038-118-127-128-134-139-239-202000-
NORTH FLORIDA
  
CITY           SKY/WX    TMP DP  RH WIND       PRES   REMARKS
MARIANNA       CLOUDY    71  65  81 SE5       30.01F                  
TALLAHASSEE    CLOUDY    74  69  85 S15G23    30.03F                  
PERRY          CLOUDY    81  70  68 S17G28    30.05F                  
LIVE OAK       CLOUDY    81  68  65 S8G21     30.04F                  
CROSS CITY     CLOUDY    82  68  62 SW20G29   30.06F                  
LAKE CITY      CLOUDY    79  66  65 SW8G20    30.06F                  
GAINESVILLE    CLOUDY    81  69  67 CALM      30.08F                  
WILLISTON        N/A    N/A N/A N/A MISG        N/A                   
PALATKA        PTSUNNY   82  68  61 S7        30.06F                  
MAYPORT NAS    PTSUNNY   65  63  93 E7        30.08F FOG              
JACKSONVILLE   PTSUNNY   79  68  69 S9        30.05F                  
JAX NAS        LGT RAIN  78  69  73 S7        30.07F                  
JAX CECIL      PTSUNNY   84  70  61 S12       30.06F                  
FERNANDINA BEA CLOUDY    70  64  82 E7        30.08F                  
ST AUGUSTINE   CLOUDY    74  69  85 SE10      30.08F HAZE             

STATION/POSITION SKY/WX   TEMP    WIND        PRES    WAVE   SWELL
                          AIR SEA DIR/SP/G            HT/PER HT/PER
                          (F)     (DEG/KT/KT) (MB)    (FT/S) (FT/S)
SHELL POINT      NOT AVBL
KEATON BEACH               72     170/ 14/ 16 1017.9F
CEDAR KEY        NOT AVBL
FERNANDINA                 72 62  130/  5/  8 1019.2F
30.7N   81.3W                 60                N/A     4/ 9   2/11
MAYPORT                    62 61   60/  6/  7 1018.6F
31.4N   80.9W              59 58   20/  8/ 10 1019.2F   5/ 9   5/ 9
ST AUGUSTINE               66 61  170/ 10/ 11 1018.5F

$$
FLZ040-043>046-052-053-057-058-063-144-202000-
INTERIOR CENTRAL FLORIDA
  
CITY           SKY/WX    TMP DP  RH WIND       PRES   REMARKS
OCALA          FAIR      85  67  54 S16       30.05F                  
LEESBURG       CLOUDY    81  68  64 SE8       30.07F                  
SANFORD        CLOUDY    82  70  66 SE10      30.07F                  
ORLANDO EXEC   PTSUNNY   83  68  60 S13       30.06F                  
ORLANDO INTL   PTSUNNY   84  69  60 SE14      30.06F                  
KISSIMMEE      FAIR      83  70  64 S18       30.06F                  
WINTER HAVEN   PTSUNNY   87  68  52 SE14      30.06F                  
LAKELAND       MOSUNNY   84  66  54 SE15      30.05F                  
BARTOW         PTSUNNY   84  68  58 S13G20    30.04F                  
SEBRING        FAIR      85  68  56 SE21      30.06F                  
OKEECHOBEE     FAIR      82  68  61 S16G22    30.08F                  

$$
FLZ041-047-054-059-064-141-147-202000-
EAST CENTRAL FLORIDA
  
CITY           SKY/WX    TMP DP  RH WIND       PRES   REMARKS
ORMOND BEACH   PTSUNNY   79  73  83 SE12      30.07F                  
DAYTONA BEACH  PTSUNNY   80  71  74 S9        30.07F                  
DELAND         CLOUDY    81  70  69 SE12      30.07F                  
NEW SMYRNA BEA PTSUNNY   81  68  65 S17G23    30.09F                  
JFK SPACE CTR  FAIR      81  71  69 S20G28    30.07F                  
TITUSVILLE     CLOUDY    82  70  65 S17G29    30.08F                  
CAPE CANAVERAL FAIR      78  69  75 S15       30.07F                  
PATRICK AFB    FAIR      78  71  79 S17       30.07F                  
MELBOURNE      FAIR      82  70  66 SE21G29   30.07F                  
VERO BEACH     FAIR      82  69  64 SE23G33   30.08F                  
FT PIERCE      FAIR      83  68  60 SE24G32   30.08F                  
STUART         MOSUNNY   82  68  61 SE18G29   30.11F                  

STATION/POSITION SKY/WX   TEMP    WIND        PRES    WAVE   SWELL
                          AIR SEA DIR/SP/G            HT/PER HT/PER
                          (F)     (DEG/KT/KT) (MB)    (FT/S) (FT/S)
28.5N   80.2W              72     150/ 16/ 21 1018.9F   8/ 9   5/ 9
28.9N   78.5W              76 78  150/ 19/ 25 1020.8F   9/ 8   5/14
TRIDENT PIER               73 69  150/  9/ 10 1019.8F
28.4N   80.5W                 68                N/A     4/ 6   2/11

$$
FLZ050-056-061-142-242-148-248-149-249-151-251-155-255-
160-260-202000-
WEST CENTRAL FLORIDA
  
CITY           SKY/WX    TMP DP  RH WIND       PRES   REMARKS
CRYSTAL RIVER  CLOUDY    82  70  65 W7        30.05F                  
INVERNESS      PTSUNNY   86  70  58 S9        30.05F HAZE             
BROOKSVILLE    PTSUNNY   84  67  56 S9        30.06F                  
CLEARWATER AIR FAIR      82  68  61 S10G17    30.04F                  
ST PETE CLEARW FAIR      85  67  54 S16G22    30.04F                  
TAMPA INTL     FAIR      84  69  60 SW10      30.05F                  
TAMPA EXEC     PTSUNNY   86  66  51 S9G17     30.05F                  
PLANT CITY     PTSUNNY   88  66  48 S13       30.06F                  
MACDILL AFB    FAIR      84  69  60 S12       30.04F                  
PETER O KNIGHT CLOUDY    86  70  58 S9        30.05F                  
ST PETERSBURG  FAIR      83  68  60 S16G25    30.03F                  
SARASOTA       FAIR      84  69  60 S20G26    30.03F                  
VENICE         FAIR      82  70  65 S18G28    30.05F                  

STATION/POSITION SKY/WX   TEMP    WIND        PRES    WAVE   SWELL
                          AIR SEA DIR/SP/G            HT/PER HT/PER
                          (F)     (DEG/KT/KT) (MB)    (FT/S) (FT/S)
27.3N   84.2W                 72                N/A     5/ 6
CLEARWATER BEACH           79 70  180/ 17/ 20 1017.7F
MIDDLE TAMPA BAY           77     220/ 13/ 16 1017.5F
VENICE                     75 69  170/ 19/ 20   N/A

$$
FLZ066-069-070-075>078-162-262-165-265-202000-
SOUTHWEST FLORIDA AND KEYS
  
CITY           SKY/WX    TMP DP  RH WIND       PRES   REMARKS
PUNTA GORDA    CLOUDY    80  67  64 S20G26    30.07F                  
FT MYERS       CLOUDY    81  65  58 S9        30.05F                  
SOUTHWEST INTL CLOUDY    80  67  64 S9        30.06F                  
NAPLES         CLOUDY    80  68  66 SE9       30.06F                  
MARCO ISLAND   CLOUDY   N/A N/A N/A SE12      30.07F                  
IMMOKALEE      CLOUDY    82  72  69 SW6G12    30.05F                  
MARATHON       FAIR      86  71  60 SE14G21   30.05F                  
KEY WEST NAS   FAIR      85  71  63 SE20      30.05F                  
KEY WEST INTL  FAIR      82  73  74 SE16      30.05F                  

STATION/POSITION SKY/WX   TEMP    WIND        PRES    WAVE   SWELL
                          AIR SEA DIR/SP/G            HT/PER HT/PER
                          (F)     (DEG/KT/KT) (MB)    (FT/S) (FT/S)
NAPLES                     79 73  130/  3/ 10 1018.2F
26.0N   85.6W              79 80  140/ 14/ 17 1016.0F   5/ 7
DRY TORTUGAS               78     140/ 12/ 13 1016.9F
SAND KEY                   78                 1017.2F
SOMBRERO KEY               78                 1017.1F
LONG KEY                   79 79  120/ 17/ 20 1017.5F
MOLASSES REEF              78 78  140/ 17/ 19 1018.5F

$$
FLZ067-068-071>074-168-172>174-202000-
SOUTHEAST FLORIDA 
  
CITY           SKY/WX    TMP DP  RH WIND       PRES   REMARKS
W PALM BEACH   FAIR      82  68  62 SE16G24   30.10F                  
BOCA RATON     MOSUNNY   82  72  69 SE16      30.09F                  
FT LAUDER-EXEC PTSUNNY   81  71  71 SE15      30.09F                  
FT LAUDERDALE  FAIR      82  72  71 SE15      30.08F                  
POMPANO BEACH  FAIR      82  70  66 SE15      30.09F                  
PEMBROKE PINES PTSUNNY   82  68  62 SE15G23   30.09F                  
OPA LOCKA      FAIR      84  66  54 SE17      30.09F                  
MIAMI          FAIR      82  67  60 SE17G24   30.09F                  
WEST KENDALL   FAIR      84  67  56 SE16G23   30.08F                  
HOMESTEAD      FAIR      82  70  65 SE14      30.07F                  

STATION/POSITION SKY/WX   TEMP    WIND        PRES    WAVE   SWELL
                          AIR SEA DIR/SP/G            HT/PER HT/PER
                          (F)     (DEG/KT/KT) (MB)    (FT/S) (FT/S)
PORT EVERGLADES            80     130/  9/ 12 1019.1F
VIRGINIA KEY               79 79  110/ 12/ 15 1018.6F
LAKE WORTH                 77 78  150/ 15/ 17 1020.4F
FOWEY ROCKS                77 78  120/ 16/ 17 1019.2F
SETTLEMENT POINT           79     150/ 15/ 18 1019.7F

$$